Date,TemperatureHighF,TemperatureAvgF,TemperatureLowF,DewpointHighF,DewpointAvgF,DewpointLowF,HumidityHigh,HumidityAvg,HumidityLow,PressureMaxIn,PressureMinIn,WindSpeedMaxMPH,WindSpeedAvgMPH,GustSpeedMaxMPH,PrecipitationSumIn
2013-1-1,31.5,26.3,18.8,30.0,22.7,16.6,94,86,76,30.18,30.05,10,1,10,0.03
2013-1-2,20.6,14.5,7.4,16.8,8.8,4.6,92,78,63,30.29,30.16,9,1,10,0.00
2013-1-3,30.0,22.7,14.3,25.4,17.0,7.0,86,78,64,30.31,30.21,20,4,21,0.00
2013-1-4,26.6,21.6,15.0,21.5,16.9,11.9,89,82,73,30.33,30.27,21,6,21,0.00
2013-1-5,35.4,28.6,19.4,31.7,25.0,17.2,95,87,75,30.34,30.10,20,4,20,0.02
2013-1-6,35.6,30.6,24.9,32.4,27.1,21.0,91,87,82,30.35,29.98,22,6,22,0.01
2013-1-7,34.9,26.9,17.6,27.4,23.0,15.9,94,85,73,30.45,30.21,21,3,21,0.01
2013-1-8,42.2,32.9,24.0,30.9,26.8,21.0,90,79,61,30.29,30.19,13,3,13,0.00
2013-1-9,43.1,39.6,30.7,36.9,34.1,26.1,89,81,74,30.51,30.14,18,5,19,0.01
2013-1-10,43.5,34.0,26.0,39.3,29.5,23.7,94,83,70,30.53,30.05,13,2,13,0.02
2013-1-11,57.8,52.7,43.5,53.9,49.2,39.3,97,88,76,30.05,29.77,23,6,23,0.57
2013-1-12,60.1,53.6,48.9,55.1,50.8,45.9,98,90,79,29.95,29.68,16,4,18,0.90
2013-1-13,53.4,37.0,22.7,52.8,35.6,19.1,98,95,86,30.18,29.66,20,4,20,1.13
2013-1-14,22.7,19.7,16.4,19.6,16.1,12.6,93,86,80,30.49,30.18,13,3,15,0.00
2013-1-15,29.0,23.5,16.0,23.1,18.7,14.0,94,82,66,30.44,30.12,16,2,16,0.00
2013-1-16,35.1,29.4,21.2,27.4,23.9,19.3,95,81,61,30.12,29.95,16,3,16,0.00
2013-1-17,38.8,30.6,21.6,30.7,23.7,15.5,94,76,55,30.41,30.06,21,3,21,0.00
2013-1-18,37.6,29.4,20.6,26.9,21.2,16.3,86,72,55,30.49,30.09,26,5,26,0.00
2013-1-19,50.4,42.7,37.4,36.8,31.7,26.5,79,65,57,30.10,29.82,25,8,25,0.00
2013-1-20,42.7,25.9,20.6,36.3,14.9,10.0,78,63,55,30.25,29.83,30,6,30,0.00
2013-1-21,21.5,15.0,8.3,12.7,5.1,-2.9,87,65,51,30.28,30.13,27,7,27,0.00
2013-1-22,14.4,9.5,4.2,1.6,-0.2,-3.0,79,65,52,30.42,30.27,17,4,18,0.00
2013-1-23,20.0,15.1,10.9,11.7,4.3,0.9,72,62,51,30.39,30.17,13,3,13,0.00
2013-1-25,26.5,25.5,24.3,21.7,20.9,19.6,84,83,80,30.09,30.05,11,3,12,0.00
2013-1-26,29.8,24.9,21.2,20.8,18.1,15.8,84,75,61,30.46,30.09,13,2,13,0.06
2013-1-27,36.2,28.0,19.7,34.5,23.0,15.8,94,82,69,30.45,30.07,15,3,15,0.26
2013-1-28,49.8,45.8,36.2,49.3,44.8,34.6,98,96,93,30.10,29.93,18,5,18,0.08
2013-1-29,62.4,56.4,49.4,58.2,54.3,48.9,99,93,86,29.96,29.37,25,7,26,0.01
2013-1-30,64.4,47.1,28.4,59.5,45.2,25.6,98,93,82,29.51,29.18,30,6,32,0.76
2013-1-31,28.3,20.9,10.3,25.8,15.9,3.8,91,81,68,30.10,29.51,32,8,33,0.00
2013-2-1,15.7,10.9,4.7,9.8,4.7,-0.4,83,76,69,30.43,30.09,21,5,21,0.00
2013-2-2,26.0,21.9,15.6,23.6,19.0,9.7,93,88,77,30.31,30.00,16,4,16,0.00
2013-2-3,23.0,17.3,12.1,19.5,13.4,7.7,91,85,80,30.11,29.97,15,3,17,0.00
2013-2-4,33.5,26.0,19.3,27.4,21.8,14.7,93,84,68,30.10,29.82,12,2,13,0.02
2013-2-5,33.7,27.0,15.8,30.8,24.0,14.1,95,88,76,30.03,29.83,16,2,16,0.00
2013-2-6,37.5,32.4,29.0,28.2,24.8,22.9,87,74,59,30.27,30.03,14,2,14,0.00
2013-2-7,51.9,38.8,30.2,40.1,32.3,26.5,95,78,51,30.21,29.78,13,2,13,0.08
2013-2-8,41.0,33.6,30.1,39.7,29.4,24.5,96,85,75,30.33,29.78,25,5,25,0.02
2013-2-10,50.0,46.2,30.2,47.6,40.1,24.8,94,79,63,30.32,29.65,23,7,25,0.06
2013-2-11,49.7,37.5,31.2,47.7,30.5,25.1,94,76,69,30.00,29.63,26,7,30,0.00
2013-2-12,38.7,31.7,28.7,31.4,26.6,23.2,88,81,72,30.12,29.94,16,3,17,0.00
2013-2-13,42.4,33.0,25.7,32.6,27.5,23.0,91,80,66,29.95,29.77,11,1,11,0.00
2013-2-14,46.0,38.2,32.4,38.8,33.2,29.5,94,82,70,29.96,29.75,24,6,24,0.00
2013-2-15,34.4,29.8,20.6,29.8,24.2,17.7,91,80,60,30.17,29.95,14,2,15,0.01
2013-2-16,25.4,21.5,16.4,21.5,14.2,7.9,91,74,54,30.16,30.08,21,4,21,0.00
2013-2-17,29.2,21.9,13.2,15.6,12.4,8.2,85,67,46,30.26,30.15,11,2,12,0.00
2013-2-18,54.3,42.7,25.1,42.5,31.6,12.7,88,65,55,30.18,29.55,27,7,27,0.09
2013-2-19,45.7,23.7,18.1,42.7,19.3,13.1,93,83,75,30.12,29.51,28,9,30,0.05
2013-2-20,22.1,18.2,10.8,17.4,12.1,5.9,88,77,70,30.35,30.12,18,4,18,0.00
2013-2-21,27.0,24.8,22.1,22.5,19.5,16.7,90,80,75,30.39,30.08,19,4,19,0.00
2013-2-22,35.3,31.6,24.4,34.4,29.9,22.1,97,93,88,30.09,29.87,18,4,18,0.16
2013-2-23,31.4,28.6,24.9,28.5,23.7,21.8,90,82,75,29.99,29.93,15,4,15,0.01
2013-2-24,37.6,29.1,22.7,26.6,22.9,19.9,91,78,61,30.17,29.97,14,2,14,0.01
2013-2-25,43.1,33.8,22.2,30.8,26.9,20.5,95,77,58,30.20,29.95,16,3,16,0.00
2013-2-26,33.4,32.4,32.0,28.8,27.3,26.9,83,81,80,29.95,29.75,21,8,21,0.00
2013-2-27,32.7,31.8,31.3,31.4,30.4,27.2,95,95,81,29.75,29.63,12,4,14,0.13
2013-2-28,38.3,34.5,31.7,34.2,32.3,29.7,97,91,83,29.97,29.62,15,4,15,0.08
2013-3-1,33.1,31.0,27.6,31.0,26.8,22.2,96,84,77,30.10,29.96,9,2,11,0.03
2013-3-2,32.6,28.8,25.1,22.7,20.8,19.6,86,72,61,30.11,30.06,12,3,13,0.00
2013-3-3,33.0,26.3,21.0,24.1,20.7,18.0,90,79,57,30.11,30.06,12,1,12,0.00
2013-3-4,37.8,25.4,15.5,30.2,21.5,13.6,95,86,60,30.16,30.01,10,1,10,0.00
2013-3-5,35.0,31.0,28.1,31.0,29.3,27.1,96,93,84,30.03,29.67,15,4,17,0.06
2013-3-6,33.8,31.0,27.0,30.4,28.4,25.5,96,90,82,30.26,29.75,18,4,18,0.12
2013-3-7,38.3,34.1,29.5,31.5,28.6,25.4,95,81,63,30.41,30.25,13,2,13,0.21
2013-3-8,39.2,30.6,20.0,27.2,23.7,18.2,95,77,56,30.50,30.39,8,1,9,0.01
2013-3-9,45.2,36.7,28.6,35.1,29.1,24.1,85,74,61,30.39,30.08,14,3,14,0.00
2013-3-10,63.3,57.4,44.9,44.1,40.3,35.0,68,53,42,30.09,29.71,20,6,22,0.00
2013-3-11,57.1,45.5,34.1,49.7,41.9,31.9,96,88,56,29.80,29.53,22,5,23,0.23
2013-3-12,39.2,34.5,31.3,32.3,28.7,25.8,94,80,62,30.00,29.80,20,5,20,0.01
2013-3-13,32.8,29.0,26.3,29.4,20.5,14.6,90,71,54,30.32,29.99,19,5,19,0.00
2013-3-14,41.3,30.2,22.2,30.1,21.5,16.6,87,71,44,30.35,30.15,14,2,14,0.00
2013-3-15,48.5,39.0,30.2,42.8,35.4,28.8,95,87,69,30.15,29.78,11,2,13,0.05
2013-3-16,45.2,37.9,33.1,40.6,35.8,29.2,97,92,83,30.06,29.60,13,2,13,0.00
2013-3-17,37.5,32.3,29.3,30.0,25.9,23.2,88,77,65,30.18,30.03,16,5,18,0.00
2013-3-18,39.8,33.2,29.6,39.3,31.4,25.7,98,93,81,30.03,29.53,19,4,21,0.05
2013-3-19,37.4,29.9,23.9,27.7,19.3,14.5,79,65,47,30.08,29.80,31,8,31,0.00
2013-3-20,31.9,26.6,22.3,19.6,14.1,9.2,77,59,44,30.08,29.99,22,6,23,0.00
2013-3-21,34.4,24.2,16.5,18.3,14.5,11.4,83,67,45,30.03,29.97,13,3,17,0.00
2013-3-22,42.0,30.2,17.7,22.7,18.9,15.3,91,66,38,30.07,29.99,12,2,13,0.00
2013-3-23,46.0,34.6,25.7,27.5,22.9,18.7,82,63,41,30.09,29.93,11,1,12,0.00
2013-3-24,35.8,31.8,29.1,28.9,26.6,24.2,96,81,67,29.96,29.49,30,7,36,0.00
2013-3-25,35.1,31.6,28.3,33.0,29.7,27.3,97,93,81,29.98,29.52,16,6,18,0.31
2013-3-26,40.1,35.0,31.3,31.5,29.5,26.3,94,81,62,30.22,29.97,16,4,16,0.09
2013-3-27,41.7,34.6,26.6,30.8,27.4,23.9,90,75,61,30.31,30.22,15,3,16,0.00
2013-3-28,45.7,36.1,24.0,31.4,27.4,22.0,95,72,50,30.36,30.29,12,1,12,0.00
2013-3-29,52.5,40.2,28.5,36.3,30.1,26.3,93,70,42,30.32,30.21,12,1,12,0.00
2013-3-30,55.7,44.4,27.9,38.0,31.6,23.6,89,63,42,30.23,29.91,14,2,14,0.00
2013-3-31,60.3,49.1,42.7,44.6,40.5,33.2,95,74,44,29.91,29.69,16,3,26,0.03
2013-4-1,44.9,37.0,29.3,35.3,24.7,18.5,80,62,39,30.14,29.78,17,3,18,0.00
2013-4-2,44.2,33.8,22.0,22.8,18.0,12.2,89,56,29,30.29,30.14,17,2,17,0.00
2013-4-3,46.9,34.3,21.0,22.8,18.5,13.2,88,55,26,30.45,30.28,11,1,11,0.00
2013-4-4,57.6,42.6,30.1,27.2,21.7,17.0,71,46,23,30.34,29.97,12,1,12,0.00
2013-4-5,56.0,44.3,33.2,35.1,27.4,19.3,78,54,25,30.16,29.95,16,2,16,0.00
2013-4-6,66.0,51.5,36.7,40.3,31.4,25.3,70,47,33,30.15,29.75,20,5,24,0.00
2013-4-7,68.7,60.3,52.1,46.9,42.9,38.9,77,54,35,29.92,29.70,24,5,25,0.00
2013-4-8,73.1,60.2,47.4,60.3,51.8,40.1,93,75,57,29.93,29.75,24,4,24,0.38
2013-4-9,79.8,67.0,53.2,61.2,56.1,49.3,93,70,46,29.97,29.81,24,4,24,0.00
2013-4-10,69.4,61.2,49.9,61.1,55.9,48.8,97,84,70,29.85,29.73,15,3,15,2.62
2013-4-11,66.0,52.8,44.9,61.5,51.7,44.1,98,96,83,29.80,29.50,15,3,24,0.83
2013-4-12,46.6,41.4,38.1,46.0,36.6,30.9,98,83,69,29.88,29.53,21,5,21,0.09
2013-4-13,44.5,40.7,37.3,37.0,34.4,31.1,90,79,63,30.00,29.88,21,4,21,0.00
2013-4-14,68.4,54.0,40.4,48.8,42.1,35.3,84,66,46,30.02,29.80,14,3,14,0.00
2013-4-15,66.3,60.0,53.9,57.3,51.7,44.9,83,74,55,29.90,29.80,18,4,18,0.00
2013-4-16,62.1,51.6,48.0,54.9,48.5,44.0,96,89,75,30.19,29.83,15,2,15,0.46
2013-4-17,64.2,53.9,46.7,61.7,50.4,42.0,94,88,81,30.20,29.88,24,4,24,0.09
2013-4-18,73.8,63.0,50.3,66.3,59.9,47.5,98,90,71,29.90,29.51,27,4,34,2.52
2013-4-19,59.7,40.0,35.7,59.1,35.2,30.8,98,83,70,29.90,29.47,30,7,30,1.13
2013-4-20,46.4,39.1,32.9,33.3,28.2,23.6,90,67,43,30.43,29.90,17,4,17,0.00
2013-4-21,51.9,42.7,30.4,33.8,27.4,22.8,76,56,37,30.56,30.38,14,2,14,0.00
2013-4-22,66.5,52.5,33.8,40.7,35.1,29.9,93,57,29,30.39,30.09,11,2,12,0.00
2013-4-23,66.7,58.2,51.4,56.5,49.4,38.9,96,74,53,30.10,29.75,18,3,20,0.71
2013-4-24,56.7,42.1,36.6,55.6,37.4,31.6,96,84,61,30.19,29.74,18,4,18,0.63
2013-4-25,51.1,44.1,36.8,39.8,33.4,26.8,87,68,40,30.36,30.16,25,4,26,0.00
2013-4-26,60.9,49.7,32.4,40.5,35.6,30.1,92,61,42,30.43,30.32,14,2,14,0.00
2013-4-27,65.6,48.9,38.8,51.7,38.5,34.5,88,70,36,30.33,30.00,12,1,14,0.02
2013-4-28,59.1,56.5,53.0,57.4,54.9,50.8,97,94,86,30.00,29.79,12,1,12,0.69
2013-4-29,67.9,60.8,55.2,57.2,55.0,52.8,97,82,61,29.95,29.84,14,2,14,0.00
2013-4-30,78.5,66.7,53.1,62.3,56.1,50.0,89,70,55,29.98,29.88,17,4,17,0.00
2013-5-1,83.3,70.4,54.4,58.8,55.5,50.5,89,61,39,30.12,29.98,12,1,12,0.00
2013-5-2,77.8,69.2,61.0,58.0,55.6,53.3,81,63,46,30.14,30.02,13,2,14,0.00
2013-5-3,76.6,69.3,62.0,60.7,55.4,42.4,78,62,41,30.03,29.88,17,2,17,0.00
2013-5-4,71.5,65.0,58.7,53.4,45.0,38.5,82,50,31,29.96,29.90,14,2,15,0.00
2013-5-5,68.3,60.4,53.9,54.3,50.0,46.7,85,69,47,29.96,29.91,14,1,15,0.00
2013-5-6,70.3,62.4,55.0,55.9,51.2,45.3,84,67,53,29.95,29.89,13,1,14,0.00
2013-5-7,75.5,67.0,56.5,58.0,55.8,53.7,93,69,49,29.97,29.90,11,1,11,0.00
2013-5-8,80.0,67.4,52.0,58.4,54.1,50.1,97,66,37,29.98,29.91,9,0,9,0.00
2013-5-9,80.1,64.6,52.7,59.6,55.6,49.1,97,76,35,29.95,29.83,15,1,15,0.23
2013-5-10,67.5,61.1,48.7,62.2,57.5,45.3,97,88,75,29.86,29.75,14,2,14,0.19
2013-5-11,60.9,48.7,42.8,54.2,44.4,37.0,96,85,68,29.99,29.80,26,2,27,0.01
2013-5-12,53.7,45.4,36.6,37.1,33.1,27.8,94,65,38,30.11,29.99,20,2,20,0.00
2013-5-13,62.8,52.1,35.2,37.3,31.6,24.9,91,51,24,30.17,30.08,13,1,14,0.00
2013-5-14,84.5,64.4,48.5,61.8,46.4,31.2,66,52,41,30.09,29.73,22,3,24,0.00
2013-5-15,85.0,78.0,70.4,61.1,58.1,54.0,68,51,37,29.78,29.70,19,3,21,0.00
2013-5-16,81.5,70.7,58.5,62.1,54.7,44.7,96,61,28,29.92,29.75,7,0,7,0.03
2013-5-17,80.3,65.0,55.6,67.7,60.2,53.3,97,85,56,30.02,29.91,18,1,18,0.24
2013-5-18,78.0,68.2,57.5,68.1,60.7,51.1,96,78,61,30.05,29.93,8,0,8,0.01
2013-5-19,84.1,74.8,59.4,67.8,64.1,54.3,91,70,54,29.95,29.80,12,1,12,0.00
2013-5-20,85.1,77.8,69.9,70.7,68.0,65.6,94,73,55,29.87,29.75,20,4,20,0.00
2013-5-21,84.6,74.7,64.6,68.4,63.6,60.0,92,70,44,29.80,29.68,19,4,23,0.02
2013-5-22,75.6,69.6,62.3,64.3,61.6,54.1,93,76,55,29.72,29.63,22,4,23,0.03
2013-5-23,64.4,58.3,49.4,59.6,54.6,46.3,94,87,75,30.13,29.71,17,2,17,0.04
2013-5-24,65.9,53.8,43.3,46.7,41.5,35.4,94,67,34,30.34,30.12,14,1,14,0.00
2013-5-25,64.4,55.4,42.1,44.9,41.5,38.7,89,62,41,30.36,30.21,9,0,10,0.00
2013-5-26,70.1,61.3,44.3,52.5,44.6,39.2,90,56,39,30.28,30.14,11,1,13,0.00
2013-5-27,67.5,61.2,51.6,65.7,57.4,47.3,97,88,60,30.16,29.85,14,1,16,1.39
2013-5-28,80.4,72.3,62.3,69.1,65.9,61.4,98,81,67,29.90,29.82,22,4,25,0.04
2013-5-29,85.0,77.1,69.5,68.5,63.9,60.8,78,65,48,29.97,29.87,17,4,17,0.00
2013-5-30,86.3,78.2,68.2,69.4,66.5,62.0,86,68,53,30.01,29.88,20,4,21,0.00
2013-5-31,75.7,71.9,67.0,69.8,67.3,63.3,95,85,75,29.94,29.81,15,3,15,0.50
2013-6-1,74.6,69.3,63.8,69.6,64.9,62.7,97,86,71,29.84,29.70,23,3,25,0.52
2013-6-2,68.9,62.7,54.2,64.1,57.8,47.7,93,84,73,29.97,29.71,17,2,17,0.10
2013-6-3,69.5,56.8,44.9,50.6,45.1,37.9,94,69,37,30.07,29.96,9,1,9,0.00
2013-6-4,74.3,63.5,47.4,52.1,48.1,45.4,94,61,37,30.14,30.04,11,1,13,0.00
2013-6-5,79.4,71.8,54.5,56.5,52.0,47.0,78,51,38,30.07,29.85,13,1,15,0.00
2013-6-6,76.3,65.9,58.3,59.0,54.1,45.6,80,66,51,29.87,29.77,10,1,10,0.00
2013-6-7,74.9,66.2,57.7,58.6,56.0,53.6,93,71,51,29.87,29.79,9,1,10,0.00
2013-6-8,77.1,66.7,52.9,60.3,55.5,51.2,95,69,44,29.98,29.86,9,1,10,0.00
2013-6-9,82.1,71.2,62.0,65.9,61.1,56.2,93,73,45,30.00,29.81,13,1,15,0.05
2013-6-10,77.0,70.2,64.5,66.2,64.2,61.4,97,82,62,29.81,29.71,15,2,17,0.57
2013-6-11,84.1,72.5,62.5,69.7,65.4,61.5,97,80,52,29.92,29.77,10,1,14,0.12
2013-6-12,88.4,77.5,65.8,74.9,70.9,63.6,96,81,59,29.86,29.58,26,2,26,0.05
2013-6-13,77.8,69.1,60.8,67.0,62.0,53.1,98,81,47,29.93,29.55,20,2,20,0.93
2013-6-14,79.5,68.1,55.8,62.3,58.3,54.0,95,73,47,30.05,29.91,8,0,8,0.05
2013-6-15,77.6,70.1,58.2,67.0,62.5,56.9,97,78,60,30.06,29.90,9,1,10,0.02
2013-6-16,81.5,74.0,66.0,69.4,66.5,63.0,95,78,63,29.91,29.85,19,2,20,0.00
2013-6-17,86.0,78.9,70.4,69.6,65.5,58.5,85,65,40,29.87,29.83,3,0,4,0.01
2013-6-18,80.3,73.9,66.4,66.4,63.3,58.7,95,71,52,29.98,29.80,11,1,11,0.00
2013-6-19,79.5,68.6,57.3,60.1,55.5,50.8,89,65,42,30.09,29.98,9,1,9,0.00
2013-6-20,85.9,73.9,58.9,67.1,60.6,55.1,89,65,43,30.15,30.07,9,1,9,0.00
2013-6-21,87.2,77.1,63.8,66.1,62.2,56.9,87,63,38,30.15,29.94,11,2,14,0.00
2013-6-22,88.7,78.8,71.5,73.6,68.5,64.4,86,71,51,30.07,29.95,25,2,25,0.00
2013-6-23,88.3,75.4,67.8,71.6,67.9,64.4,95,79,50,30.06,29.95,17,2,21,0.00
2013-6-24,86.2,77.0,68.3,72.4,68.2,64.3,95,76,54,30.07,29.91,25,2,25,0.03
2013-6-25,89.8,80.6,67.5,74.6,70.4,63.4,96,73,54,29.97,29.79,16,2,17,0.03
2013-6-26,84.3,73.2,68.1,74.2,68.4,66.0,96,86,60,29.87,29.68,20,1,20,0.05
2013-6-27,85.5,77.0,69.6,72.9,70.0,66.3,98,80,58,29.73,29.62,14,1,14,0.01
2013-6-28,82.6,72.0,65.5,69.3,65.2,59.5,93,80,52,29.63,29.54,13,1,20,0.00
2013-6-29,76.7,68.7,62.7,66.4,63.8,61.5,98,85,68,29.64,29.52,8,0,8,0.00
2013-6-30,72.8,66.7,61.7,65.4,62.8,60.5,97,88,72,29.86,29.64,13,1,13,0.00
2013-7-1,71.3,66.3,62.9,64.2,60.9,57.9,90,83,73,29.95,29.84,13,1,14,0.01
2013-7-2,78.8,67.2,59.9,69.3,63.5,57.9,97,88,68,29.99,29.92,11,0,11,0.00
2013-7-3,79.6,71.6,63.5,67.6,64.9,62.6,98,81,59,30.05,29.96,17,2,17,0.00
2013-7-4,78.0,71.1,61.7,67.6,64.5,60.5,98,81,57,30.11,30.02,7,0,7,0.00
2013-7-5,81.5,74.2,66.5,69.1,67.3,65.1,97,80,61,30.08,30.01,9,1,9,0.00
2013-7-6,76.0,71.2,68.8,71.4,68.3,65.4,97,91,78,30.06,29.97,8,0,8,0.00
2013-7-7,82.1,73.2,65.5,71.7,67.7,64.3,97,84,62,30.04,29.95,11,1,11,0.00
2013-7-8,83.7,77.6,70.0,74.8,71.1,67.3,92,81,70,30.04,29.94,12,1,12,0.00
2013-7-9,88.0,82.0,73.9,77.2,74.3,70.8,91,78,66,29.98,29.87,12,1,12,0.00
2013-7-10,85.0,78.1,66.5,77.9,72.8,62.1,97,84,73,30.01,29.76,19,2,30,0.00
2013-7-11,80.1,69.6,58.0,62.2,58.8,55.6,94,71,45,30.02,29.91,10,1,11,0.00
2013-7-12,80.7,71.2,56.5,63.8,59.9,55.3,97,70,47,30.08,30.00,10,1,11,0.00
2013-7-13,84.6,73.7,60.8,69.4,65.1,58.5,93,76,57,30.12,30.05,12,1,12,0.00
2013-7-14,88.8,79.7,66.4,75.5,71.3,65.2,96,77,59,30.16,30.10,9,0,9,0.00
2013-7-15,88.7,81.6,74.2,74.7,72.5,70.8,93,75,57,30.25,30.16,9,1,10,0.00
2013-7-16,90.5,82.0,70.0,75.9,73.0,68.7,96,76,55,30.29,30.22,5,0,6,0.00
2013-7-17,91.7,81.5,71.3,75.8,72.7,69.9,97,77,51,30.29,30.14,9,0,9,0.00
2013-7-18,92.7,83.2,71.6,76.9,73.4,70.1,96,74,52,30.16,29.96,9,1,9,0.00
2013-7-19,91.0,83.8,74.4,76.7,74.0,71.2,91,73,58,29.98,29.78,16,2,18,0.00
2013-7-20,81.6,77.1,71.6,74.0,71.9,69.7,94,84,73,29.87,29.74,14,1,15,0.00
2013-7-21,86.1,77.0,66.5,75.9,70.7,65.6,98,82,58,29.93,29.82,7,0,7,0.00
2013-7-22,83.1,74.0,65.9,72.3,68.8,64.7,97,85,62,29.86,29.73,10,0,10,0.00
2013-7-23,84.5,75.3,61.9,73.1,67.5,56.5,96,78,59,29.85,29.67,14,2,19,0.00
2013-7-24,74.2,64.0,53.5,58.3,55.0,51.2,92,74,52,30.00,29.85,10,1,15,0.00
2013-7-25,77.2,65.0,52.5,60.9,55.9,51.4,97,75,48,30.09,29.99,9,0,9,0.00
2013-7-26,79.5,68.7,55.3,62.9,59.0,53.8,95,73,49,30.07,29.90,11,1,12,0.00
2013-7-27,76.9,69.8,59.1,65.7,60.3,54.0,92,73,48,29.90,29.78,18,2,18,0.00
2013-7-28,70.7,62.1,52.2,54.9,51.7,47.8,91,70,50,30.00,29.87,17,1,23,0.00
2013-7-29,75.8,63.9,51.1,61.0,54.7,49.7,96,74,53,30.15,30.00,12,1,12,0.00
2013-7-30,77.0,68.1,54.6,66.2,60.6,53.5,97,79,55,30.18,30.06,9,0,9,0.00
2013-7-31,73.4,68.3,64.9,70.0,66.4,63.4,97,94,88,30.06,29.89,8,0,8,0.00
2013-8-1,80.5,70.5,62.2,66.1,62.8,59.2,98,79,50,29.96,29.89,13,1,16,0.00
2013-8-2,82.5,70.4,57.7,67.5,62.6,56.5,96,78,58,29.95,29.84,19,2,24,0.00
2013-8-3,81.1,71.7,60.6,67.9,63.4,55.4,98,77,51,30.03,29.89,11,1,13,0.00
2013-8-4,78.0,67.2,53.5,60.5,56.9,52.0,97,72,44,30.14,30.03,10,0,12,0.00
2013-8-5,76.6,67.2,59.8,66.5,60.4,57.7,95,80,56,30.08,29.91,8,0,9,0.00
2013-8-6,78.3,71.3,63.9,70.6,65.9,59.8,92,83,75,29.93,29.85,9,1,9,0.00
2013-8-7,82.7,76.6,70.3,73.3,71.5,68.3,97,85,71,29.87,29.80,14,2,14,0.00
2013-8-8,75.8,71.4,67.3,72.7,69.3,66.3,98,93,85,29.92,29.84,7,0,8,0.00
2013-8-9,82.5,74.2,67.2,69.3,66.6,61.4,98,79,50,29.98,29.87,5,0,8,0.00
2013-8-10,83.2,75.4,65.4,69.8,66.8,64.2,96,76,54,30.05,29.98,10,1,11,0.00
2013-8-11,83.1,72.5,62.0,68.9,64.5,61.1,98,78,49,30.07,30.01,7,0,10,0.00
2013-8-12,84.8,73.9,63.2,70.4,66.7,61.8,97,80,57,30.04,29.82,11,1,11,0.00
2013-8-13,72.3,66.1,56.2,68.6,57.2,49.8,97,75,47,30.06,29.82,13,1,13,0.00
2013-8-14,71.6,59.6,49.0,54.8,50.0,46.8,93,73,45,30.18,30.05,7,0,9,0.00
2013-8-15,74.4,62.2,47.6,57.5,51.6,46.5,98,72,43,30.16,30.08,4,0,7,0.00
2013-8-16,76.0,65.8,55.4,60.2,56.3,52.8,94,74,49,30.15,30.10,9,0,9,0.00
2013-8-17,79.5,68.1,55.2,61.3,58.0,52.7,93,72,49,30.19,30.12,11,0,11,0.00
2013-8-18,83.8,71.7,56.6,66.3,60.3,55.2,97,70,43,30.16,30.06,7,0,8,0.00
2013-8-19,83.7,71.5,58.5,66.4,62.0,56.8,95,74,52,30.10,30.02,8,0,10,0.00
2013-8-20,85.3,75.5,61.3,67.4,64.3,60.2,97,71,48,30.12,30.04,8,0,9,0.00
2013-8-21,87.2,76.3,66.3,71.3,67.1,63.1,91,75,51,30.10,29.98,9,0,9,0.00
2013-8-22,81.4,72.5,68.0,71.8,68.3,66.0,95,87,69,30.05,29.96,13,0,13,0.02
2013-8-23,84.3,71.5,62.1,69.8,64.6,59.6,98,81,48,30.12,30.01,5,0,6,0.12
2013-8-24,83.7,70.4,54.5,62.2,58.1,50.5,98,69,35,30.25,30.12,9,0,9,0.01
2013-8-25,86.8,74.5,59.7,67.0,62.5,58.0,96,69,43,30.27,30.15,10,1,10,0.00
2013-8-26,88.1,76.3,62.9,74.3,67.8,59.3,90,76,54,30.19,30.01,12,1,12,0.00
2013-8-27,90.3,80.7,71.6,77.0,72.8,68.8,93,78,60,30.02,29.88,13,1,13,0.00
2013-8-28,86.3,80.0,74.4,76.4,72.4,69.0,94,78,64,29.94,29.83,14,2,14,0.00
2013-8-29,87.5,76.5,67.8,73.2,69.9,66.6,98,82,56,30.02,29.94,7,0,7,0.00
2013-8-30,90.3,78.1,64.6,73.9,69.3,63.4,97,76,51,29.95,29.73,13,1,13,0.00
2013-8-31,81.6,73.8,69.2,74.5,69.4,66.6,95,87,69,29.83,29.70,9,1,11,0.09
2013-9-1,80.0,72.6,67.8,73.2,69.4,66.9,98,90,77,29.76,29.72,10,0,10,0.05
2013-9-2,83.2,72.7,62.8,69.8,64.8,58.3,98,79,47,29.91,29.71,13,1,13,0.01
2013-9-3,75.1,62.5,50.0,59.5,55.1,48.7,97,78,53,30.03,29.90,9,0,11,0.00
2013-9-4,81.4,64.9,51.5,62.5,56.6,50.6,98,78,45,30.11,30.02,8,0,9,0.00
2013-9-5,81.3,68.7,57.1,64.3,58.4,47.0,97,73,46,30.17,30.08,8,0,10,0.00
2013-9-6,81.4,63.9,50.2,60.5,51.9,46.9,92,68,37,30.22,30.04,7,0,7,0.00
2013-9-7,86.8,73.9,60.5,68.3,61.6,54.6,82,67,45,30.04,29.87,10,1,12,0.00
2013-9-8,83.5,73.6,63.6,71.1,66.5,62.0,96,79,62,29.96,29.89,10,1,13,0.00
2013-9-9,91.8,77.8,64.6,72.8,68.5,62.4,95,75,50,29.97,29.85,15,2,15,0.00
2013-9-10,95.8,84.1,74.6,74.0,70.0,61.6,91,66,33,30.03,29.91,13,2,17,0.00
2013-9-11,94.6,82.8,72.6,72.9,67.5,62.7,91,63,37,30.05,29.92,14,1,15,0.00
2013-9-12,82.8,72.2,61.8,70.3,64.4,54.7,97,79,44,29.94,29.79,12,1,14,0.24
2013-9-13,66.2,58.0,49.0,54.9,48.2,43.8,93,71,46,30.10,29.93,12,1,12,0.05
2013-9-14,70.0,54.2,39.5,51.7,42.1,32.1,98,69,27,30.19,30.07,9,0,10,0.01
2013-9-15,74.3,58.9,46.8,57.8,49.2,43.9,96,74,38,30.10,29.96,11,1,11,0.01
2013-9-16,64.6,58.2,50.6,56.3,54.4,49.2,97,88,66,30.28,30.07,8,0,9,0.02
2013-9-17,72.4,57.9,45.6,54.6,49.7,44.5,97,77,48,30.33,30.14,10,0,10,0.01
2013-9-18,81.2,65.6,57.6,65.8,56.4,50.6,94,74,43,30.14,29.97,9,0,10,0.01
2013-9-19,73.3,68.9,64.7,71.0,66.8,63.8,97,93,85,30.01,29.85,9,1,9,0.03
2013-9-20,77.0,71.7,67.0,70.3,68.5,66.1,97,90,77,29.89,29.74,13,2,14,0.02
2013-9-21,70.1,61.2,49.1,66.2,53.5,47.2,97,78,49,29.87,29.71,16,1,16,0.01
2013-9-22,68.3,55.8,47.1,51.5,47.2,44.5,98,76,44,30.01,29.87,9,0,9,0.00
2013-9-23,70.3,55.4,43.0,50.3,46.3,41.6,96,74,45,30.11,30.00,10,0,11,0.00
2013-9-24,72.5,57.5,43.6,51.7,47.6,42.3,97,72,43,30.07,29.91,11,0,11,0.00
2013-9-25,76.0,60.6,49.0,54.2,50.3,47.3,95,72,38,29.93,29.86,11,0,13,0.00
2013-9-26,79.1,62.0,49.7,56.7,52.0,48.6,97,74,37,30.06,29.91,7,0,8,0.00
2013-9-27,80.7,62.7,48.7,53.9,49.3,41.4,92,66,25,30.16,30.06,7,0,7,0.00
2013-9-28,80.9,65.3,49.4,57.9,53.9,48.0,97,70,41,30.13,29.98,13,1,13,0.00
2013-9-29,64.8,62.1,55.7,62.4,59.1,54.6,98,90,75,29.99,29.93,8,0,8,0.00
2013-9-30,75.2,62.2,54.1,61.8,57.3,53.5,99,86,53,29.99,29.89,10,0,10,0.00
2013-10-1,73.8,65.3,59.1,63.9,61.5,58.2,98,88,69,30.02,29.94,13,1,13,0.00
2013-10-2,78.6,68.3,62.5,69.6,65.1,61.0,98,90,69,30.06,29.97,7,0,7,0.00
2013-10-3,79.5,71.5,65.0,70.2,65.9,63.5,98,84,62,30.00,29.89,14,1,14,0.00
2013-10-4,83.3,73.5,67.6,71.6,67.6,65.5,94,82,63,29.99,29.93,11,2,13,0.00
2013-10-5,77.5,70.7,67.3,71.6,68.1,65.6,97,92,77,29.97,29.80,13,2,14,0.00
2013-10-6,67.7,60.4,48.6,65.6,57.5,41.7,97,90,70,29.83,29.66,17,2,17,0.00
2013-10-7,60.9,50.5,45.0,49.7,45.5,41.5,96,84,61,30.12,29.76,17,1,19,0.00
2013-10-8,72.1,56.4,46.1,53.1,47.9,44.8,96,76,44,30.24,30.12,9,0,10,0.00
2013-10-9,73.4,56.7,42.3,52.0,46.7,41.0,97,73,40,30.24,30.13,8,0,8,0.00
2013-10-10,74.1,56.9,43.2,52.1,46.8,42.1,98,73,36,30.17,30.06,6,0,6,0.00
2013-10-11,78.8,60.7,45.1,55.8,48.9,43.6,97,70,35,30.10,29.98,7,0,7,0.00
2013-10-12,79.2,62.3,48.9,59.3,52.7,47.8,98,75,38,30.08,29.99,10,1,10,0.00
2013-10-13,70.5,60.9,48.9,61.6,47.6,40.2,94,64,35,30.32,30.08,9,1,9,0.00
2013-10-14,68.4,54.0,41.4,51.7,44.6,39.5,95,73,42,30.35,30.18,9,0,10,0.00
2013-10-15,66.3,57.7,47.7,62.2,55.0,45.3,96,91,84,30.19,29.86,13,1,14,0.00
2013-10-16,63.7,55.1,47.9,62.2,47.9,42.7,95,77,61,29.94,29.83,15,2,16,0.00
2013-10-17,51.6,46.4,41.5,48.5,44.2,39.9,97,92,82,29.93,29.84,13,1,14,0.00
2013-10-18,64.1,50.4,41.5,50.5,43.6,40.2,95,80,47,29.96,29.88,15,2,16,0.00
2013-10-19,52.5,45.2,41.2,42.4,39.4,35.8,95,81,56,29.94,29.83,12,1,14,0.00
2013-10-20,63.6,51.3,41.8,45.6,40.7,36.8,84,68,48,29.95,29.86,18,3,19,0.00
2013-10-21,56.9,49.3,38.7,47.8,42.8,30.5,90,78,68,29.95,29.86,14,2,15,0.00
2013-10-22,49.0,38.3,31.0,36.8,31.2,26.8,95,77,47,30.01,29.88,9,1,10,0.44
2013-10-23,46.7,38.7,33.4,38.8,34.0,29.1,97,85,54,30.01,29.83,16,1,16,0.21
2013-10-24,43.1,38.6,32.6,34.3,31.2,26.2,88,75,62,30.26,30.00,17,1,17,0.06
2013-10-25,48.4,37.3,28.7,32.2,28.2,25.9,90,71,45,30.42,30.21,13,1,15,0.18
2013-10-26,54.4,43.6,36.2,40.4,32.9,27.6,90,66,50,30.21,29.87,27,3,27,0.00
2013-10-27,55.3,41.7,30.3,37.7,32.7,28.9,96,74,41,30.09,30.01,12,1,12,0.00
2013-10-28,60.9,42.9,30.1,39.8,33.2,28.8,97,73,36,30.32,30.07,6,0,6,0.00
2013-10-29,55.2,45.3,35.8,44.5,39.8,34.2,95,82,64,30.37,30.17,7,0,7,0.00
2013-10-30,63.6,55.6,47.5,62.4,53.1,43.8,97,91,76,30.18,29.90,11,1,11,0.02
2013-10-31,63.6,60.8,55.1,62.4,59.4,53.0,97,95,90,29.91,29.22,22,5,22,0.08
2013-11-1,55.0,49.1,45.1,53.6,45.3,42.7,96,87,73,29.71,29.31,22,3,22,0.04
2013-11-2,49.9,45.3,43.3,44.3,42.2,40.2,93,89,77,30.09,29.71,13,2,13,0.02
2013-11-3,51.7,43.0,34.8,41.7,38.5,33.5,98,85,62,30.34,30.09,8,0,9,0.00
2013-11-4,54.5,47.2,39.8,42.8,38.9,35.0,86,73,57,30.36,30.24,13,2,13,0.01
2013-11-5,57.5,52.3,45.3,49.0,44.9,41.0,91,77,63,30.34,30.10,12,2,12,0.00
2013-11-6,58.9,53.7,42.3,53.7,47.5,39.9,95,80,61,30.11,29.84,20,5,21,0.00
2013-11-7,47.9,41.1,33.2,40.0,33.2,28.1,92,75,48,30.25,30.05,17,3,17,0.00
2013-11-8,49.1,39.6,30.7,35.6,31.8,28.8,93,75,53,30.36,30.15,10,1,11,0.16
2013-11-9,60.0,50.2,41.0,43.4,37.2,29.8,77,61,52,30.15,29.93,22,5,22,0.09
2013-11-10,47.5,41.2,34.1,39.2,32.3,28.9,86,71,56,30.31,30.04,14,3,17,0.00
2013-11-11,50.4,40.8,28.9,40.2,34.2,26.8,95,78,60,30.35,30.05,19,3,19,0.01
2013-11-12,34.8,28.7,22.9,27.0,23.2,19.7,90,80,64,30.63,30.35,10,2,12,0.42
2013-11-13,38.5,29.6,21.4,22.4,20.4,18.4,89,70,47,30.62,30.32,16,3,18,0.01
2013-11-14,52.6,40.5,30.5,25.9,22.9,19.3,74,52,27,30.32,30.06,18,6,19,0.15
2013-11-15,51.4,44.4,40.3,38.2,29.2,23.8,80,55,45,30.08,30.01,15,3,15,0.00
2013-11-16,59.7,50.9,42.7,57.3,47.8,38.1,94,89,80,30.04,29.73,21,5,21,0.01
2013-11-17,64.5,58.8,47.2,61.4,55.1,41.2,95,88,68,29.77,29.29,31,8,48,0.58
2013-11-18,47.3,42.2,33.4,41.5,34.9,28.2,87,76,60,30.19,29.70,26,6,31,0.07
2013-11-19,41.8,33.7,27.6,31.4,28.0,25.2,93,80,62,30.36,30.19,8,0,9,0.00
2013-11-20,47.2,37.6,26.0,35.8,29.9,23.3,92,74,58,30.35,30.17,11,2,14,0.00
2013-11-21,49.2,46.3,43.0,48.4,42.4,34.7,97,87,62,30.25,30.15,13,2,14,0.32
2013-11-22,49.5,43.4,30.7,48.7,41.3,28.8,98,92,78,30.41,30.14,17,3,19,0.09
2013-11-23,32.0,26.8,20.3,28.8,21.5,15.8,93,80,62,30.62,30.36,20,4,22,0.00
2013-11-24,26.7,21.1,16.6,18.0,14.7,11.2,89,77,59,30.71,30.50,12,1,12,0.00
2013-11-25,32.9,28.1,19.2,23.7,17.8,13.2,79,66,54,30.51,30.16,20,4,20,0.00
2013-11-26,36.1,32.5,28.9,29.7,26.6,23.6,89,79,71,30.17,29.96,15,2,20,0.01
2013-11-27,28.9,25.8,21.5,25.5,20.9,15.6,89,82,71,30.28,29.99,18,4,18,0.00
2013-11-28,35.2,27.5,22.0,21.9,17.8,14.4,80,67,48,30.45,30.23,18,2,18,0.00
2013-11-29,38.0,27.5,15.7,24.8,20.4,13.5,93,76,55,30.65,30.45,7,0,8,0.00
2013-11-30,49.4,37.5,28.7,32.0,27.5,21.9,80,68,50,30.50,30.11,16,2,16,0.00
2013-12-1,48.7,39.7,33.6,37.9,32.0,27.3,90,74,60,30.11,29.95,11,1,12,0.00
2013-12-2,41.2,36.3,31.8,35.2,32.6,29.0,94,87,75,29.96,29.80,9,1,10,0.02
2013-12-3,48.9,43.4,36.4,46.3,41.5,34.8,96,93,90,29.83,29.75,11,2,11,0.01
2013-12-4,60.0,52.2,39.5,57.3,50.6,38.5,98,95,88,29.81,29.60,14,3,16,0.00
2013-12-5,58.6,37.1,25.4,55.9,33.0,21.6,94,85,78,30.19,29.64,21,5,21,0.00
2013-12-6,29.4,27.1,22.6,24.4,22.1,18.1,84,81,78,30.44,30.16,10,2,11,0.00
2013-12-7,27.6,21.0,15.3,18.1,14.8,12.1,87,77,62,30.64,30.44,10,1,11,0.01
2013-12-8,29.2,23.5,18.7,28.2,19.9,13.9,96,86,78,30.56,29.99,19,3,19,0.00
2013-12-9,29.7,24.7,18.4,28.5,20.4,10.8,96,84,71,30.23,29.96,21,5,22,0.00
2013-12-10,28.0,19.1,9.4,15.7,10.8,4.8,83,70,51,30.33,30.11,25,5,28,0.00
2013-12-11,26.1,19.2,10.2,20.6,13.8,5.4,89,79,71,30.54,30.32,13,2,13,0.00
2013-12-12,24.5,13.1,3.8,7.5,3.4,-1.3,82,66,43,30.56,30.31,20,4,20,0.00
2013-12-13,34.6,25.7,16.8,30.0,17.5,7.5,95,71,61,30.32,30.15,12,2,12,0.00
2013-12-14,32.4,29.6,23.4,31.6,28.3,20.9,97,95,90,30.16,29.75,10,2,11,0.00
2013-12-15,26.8,19.7,14.9,25.0,16.4,10.7,93,87,81,30.13,29.91,20,4,24,0.00
2013-12-16,24.8,18.8,14.2,23.8,16.1,11.5,96,89,82,30.17,30.01,8,1,8,0.00
2013-12-17,28.1,23.2,19.5,26.1,21.5,18.1,96,93,85,30.12,30.00,14,3,16,0.00
2013-12-18,34.7,25.1,14.9,23.7,18.3,11.5,89,76,60,30.25,29.96,21,4,21,0.04
2013-12-19,46.2,40.9,33.5,41.2,34.5,22.6,86,78,64,29.99,29.85,15,3,16,0.20
2013-12-20,56.3,50.3,45.0,55.0,48.9,40.7,98,95,83,29.85,29.70,16,4,17,0.17
2013-12-21,53.2,38.7,35.9,51.2,37.8,35.1,97,96,90,29.81,29.48,19,2,21,0.70
2013-12-22,42.2,36.9,31.5,41.7,35.5,29.1,98,95,90,30.05,29.38,20,5,21,0.70
2013-12-23,31.4,25.2,13.2,29.1,21.1,6.8,92,84,72,30.42,30.05,18,5,20,0.05
2013-12-24,18.8,11.6,4.9,14.3,7.5,0.6,90,83,76,30.59,30.42,13,3,17,0.00
2013-12-25,28.7,24.0,17.8,25.5,19.0,14.0,88,81,74,30.49,30.15,15,4,18,0.00
2013-12-26,34.2,29.2,20.7,28.5,22.9,15.9,95,78,63,30.34,30.12,23,4,23,0.01
2013-12-27,45.3,37.0,30.4,35.2,30.3,26.1,85,77,66,30.36,30.18,15,4,15,0.12
2013-12-28,51.7,41.4,35.6,38.5,34.0,31.5,85,75,59,30.19,29.92,16,4,18,0.08
2013-12-29,43.2,36.1,26.1,35.0,30.3,23.5,94,80,70,30.06,29.76,16,4,19,0.01
2013-12-30,26.1,20.9,17.3,23.7,15.5,11.3,91,79,70,30.29,30.06,13,3,15,0.00
2013-12-31,24.8,18.9,13.9,18.3,14.5,9.4,90,83,73,30.40,30.17,18,3,19,0.00
2014-1-1,26.2,22.2,17.5,22.8,19.2,15.1,91,88,85,30.31,30.09,14,3,14,0.00
2014-1-2,17.9,14.9,5.2,15.7,12.1,1.7,92,89,80,30.37,29.97,16,4,16,0.00